Mazatlan Airport, Mexico

8:03 AM MDT on May 25, 2017 (GMT -0600)
Gen Rafael Buelna International

Weather History for MMMZ - October, 2011

Change the Weather History Date:

Thursday, October 20, 2011

  Actual Average Record
Temperature  
Mean Temperature 81 °F -  
Max Temperature 89 °F 86 °F 92 °F (2015)
Min Temperature 73 °F 69 °F 64 °F (2010)
Cooling Degree Days 16    
Growing Degree Days 31 (Base 50)    
Moisture  
Dew Point 72 °F    
Average Humidity 78    
Maximum Humidity 94    
Minimum Humidity 59    
Precipitation  
Precipitation 0.00 in - - ()
Sea Level Pressure  
Sea Level Pressure 29.93 in    
Wind  
Wind Speed 6 mph ()    
Max Wind Speed 15 mph    
Max Gust Speed -    
Visibility 9.8 miles    
Events      
Averages and records for this station are not official NWS values.
T = Trace of Precipitation, MM = Missing Value Source: Averaged Metar Reports

Daily Weather History Graph

Daily Weather History Graph

Search for Another Location

Airport or City:

Trip Planner

Search our weather history database for the weather conditions in past years. The results will help you decide how hot, cold, wet, or windy it might be!

Date:

Astronomy

Oct. 20, 2011 Rise Set
Actual Time 7:04 AM MDT 6:35 PM MDT
Civil Twilight 6:41 AM MDT 6:58 PM MDT
Nautical Twilight 6:14 AM MDT 7:24 PM MDT
Astronomical Twilight 5:48 AM MDT 7:50 PM MDT
Moon 12:39 AM MDT (10/20) 2:02 PM MDT (10/20)
Length of Visible Light 12h 16m
Length of Day
11h 31m
Last Quarter, 43% of the Moon is Illuminated
Oct 20
Last Quarter
Oct 26
New
Nov 2
First Quarter
Nov 10
Full
Nov 18
Last Quarter

Hourly Weather History & Observations

Time (MDT) Temp. Heat Index Dew Point Humidity Pressure Visibility Wind Dir Wind Speed Gust Speed Precip Events Conditions
12:42 AM 75.2 °F - 71.6 °F 89% 29.93 in 10.0 mi North 5.8 mph - N/A   Clear
1:51 AM 75.2 °F - 71.6 °F 89% 29.93 in 10.0 mi North 6.9 mph - N/A   Clear
2:40 AM 75.2 °F - 71.6 °F 89% 29.92 in 10.0 mi North 6.9 mph - N/A   Scattered Clouds
3:51 AM 73.4 °F - 69.8 °F 88% 29.91 in 8.0 mi North 6.9 mph - N/A   Clear
4:50 AM 73.4 °F - 69.8 °F 88% 29.92 in 8.0 mi North 4.6 mph - N/A   Clear
5:46 AM 73.4 °F - 69.8 °F 88% 29.91 in 8.0 mi North 5.8 mph - N/A   Clear
6:40 AM 73.4 °F - 69.8 °F 88% 29.94 in 10.0 mi North 4.6 mph - N/A   Partly Cloudy
7:48 AM 73.4 °F - 71.6 °F 94% 29.96 in 4.0 mi ENE 5.8 mph - N/A   Scattered Clouds
8:40 AM 77.0 °F - 73.4 °F 89% 29.97 in 7.0 mi North 6.9 mph - N/A   Scattered Clouds
9:45 AM 80.6 °F 85.4 °F 73.4 °F 79% 29.99 in 8.0 mi East 5.8 mph - N/A   Scattered Clouds
10:53 AM 84.2 °F 90.9 °F 73.4 °F 70% 29.98 in 8.0 mi NNW 3.5 mph - N/A   Partly Cloudy
11:45 AM 87.8 °F 95.6 °F 73.4 °F 62% 29.88 in 10.0 mi South 6.9 mph - N/A   Scattered Clouds
12:50 PM 89.6 °F 98.2 °F 73.4 °F 59% 29.94 in 10.0 mi SSW 11.5 mph - N/A   Partly Cloudy
1:40 PM 89.6 °F 98.2 °F 73.4 °F 59% 29.92 in 10.0 mi SW 15.0 mph - N/A   Partly Cloudy
2:40 PM 87.8 °F 95.6 °F 73.4 °F 62% 29.90 in 10.0 mi SW 9.2 mph - N/A   Partly Cloudy
3:45 PM 87.8 °F 95.6 °F 73.4 °F 62% 29.89 in 12.0 mi SW 10.4 mph - N/A   Scattered Clouds
4:47 PM 86.0 °F 91.8 °F 71.6 °F 62% 29.89 in 15.0 mi WSW 10.4 mph - N/A   Partly Cloudy
5:44 PM 84.2 °F 90.9 °F 73.4 °F 70% 29.90 in 15.0 mi WSW 9.2 mph - N/A   Partly Cloudy
6:44 PM 80.6 °F 84.6 °F 71.6 °F 74% 29.91 in 12.0 mi WSW 6.9 mph - N/A   Partly Cloudy
7:41 PM 80.6 °F 84.6 °F 71.6 °F 74% 29.93 in 10.0 mi WNW 4.6 mph - N/A   Clear
8:42 PM 78.8 °F - 71.6 °F 78% 29.95 in 10.0 mi NNW 5.8 mph - N/A   Clear
9:50 PM 78.8 °F - 71.6 °F 78% 29.96 in 10.0 mi North 4.6 mph - N/A   Clear
10:44 PM 77.0 °F - 71.6 °F 83% 29.97 in 10.0 mi North 5.8 mph - N/A   Clear
11:46 PM 75.2 °F - 71.6 °F 89% 29.96 in 10.0 mi North 6.9 mph - N/A   Clear